This is the latest recevied weather packets stored in our database for station/object KB3UMW-13. If no packets are shown the sender has not sent any weather packets the latest 1 day(s).
| Time | Temp. | Humidity | Pressure | Rain* | Wind** | Luminosity | Snow |
|---|---|---|---|---|---|---|---|
| 1778026164 | 13.89° C | 74% | 1011.2 hPa | 0 mm | - | 3 W/m² | - |
| 1778025256 | 15.56° C | 65% | 1011 hPa | 0 mm | - | 8 W/m² | - |
| 1778023742 | 17.22° C | 63% | 1010.6 hPa | 0 mm | - | 37 W/m² | - |
| 1778023136 | 17.78° C | 59% | 1010.6 hPa | 0 mm | - | 44 W/m² | - |
| 1778022532 | 18.89° C | 55% | 1010.7 hPa | 0 mm | - | 43 W/m² | - |
| 1778022229 | 18.89° C | 53% | 1011 hPa | 0 mm | - | 44 W/m² | - |
| 1778021623 | 19.44° C | 52% | 1010.8 hPa | 0 mm | - | 92 W/m² | - |
| 1778019499 | 19.44° C | 49% | 1011.1 hPa | 0 mm | - | 56 W/m² | - |
| 1778017077 | 20.56° C | 51% | 1011.2 hPa | 0 mm | - | 184 W/m² | - |
| 1778016775 | 20.56° C | 50% | 1011.3 hPa | 0 mm | - | 179 W/m² | - |
| 1778016470 | 20.56° C | 48% | 1011.3 hPa | 0 mm | - | 187 W/m² | - |
| 1778016168 | 20.56° C | 47% | 1011 hPa | 0 mm | - | 183 W/m² | - |
| 1778015258 | 21.11° C | 49% | 1011.1 hPa | 0 mm | - | 224 W/m² | - |
| 1778014955 | 21.11° C | 47% | 1010.8 hPa | 0 mm | - | 222 W/m² | - |
| 1778012834 | 22.22° C | 43% | 1011.2 hPa | 0 mm | - | 287 W/m² | - |
| 1778012227 | 22.78° C | 41% | 1011 hPa | 0 mm | - | 279 W/m² | - |
| 1778011623 | 22.78° C | 41% | 1011 hPa | 0 mm | - | 322 W/m² | - |
| 1778010410 | 22.78° C | 39% | 1011.3 hPa | 0 mm | - | 359 W/m² | - |
| 1778010106 | 22.78° C | 43% | 1011.2 hPa | 0 mm | - | 337 W/m² | - |
| 1778006772 | 23.89° C | 39% | 1011.4 hPa | 0 mm | - | 707 W/m² | - |
| 1778006469 | 24.44° C | 38% | 1011.3 hPa | 0 mm | - | 679 W/m² | - |
| 1778004953 | 23.89° C | 37% | 1011.6 hPa | 0 mm | - | 841 W/m² | - |
* Rain latest hour (hover to see other rain measurements)
** Current wind speed in m/s (hover to see current wind gust speed)